RH
94 96 100 100 98 100 99 99 100 92 90 98 101 99 100 100 97 90 84 79 78 89 100 97 98 101 91 83 84 82 86 94 92 83 80 82 81 77 73 71 73 74 70 66 63 62 54 37 27 26 24 22 22 19 17 16 17 24 29 32 41 47 43 34 25 22 21 17 13 13 10 10 12 14 15 18 25 31 44 65 63 37 27 36 32 30 58
94 96 100 98 98 100 97 99 97 86 87 98 101 100 100 99 98 95 91 83 81 95 102 97 99 96 87 87 87 82 85 90 92 93 89 81 76 78 75 69 66 63 61 64 60 56 57 47 30 24 24 22 17 19 22 19 18 25 30 39 44 40 45 48 35 24 22 21 20 15 12 12 18 25 20 15 22 26 32 44 40 30 35 38 32 40 66
92 94 98 98 97 98 98 99 91 78 82 94 98 100 100 99 98 96 96 90 88 98 99 97 101 97 93 94 89 87 88 84 86 89 84 75 71 77 77 68 63 60 60 66 61 53 58 56 40 25 22 25 21 17 23 23 21 22 25 40 44 35 54 77 64 42 34 33 35 34 27 19 20 24 18 13 17 17 26 34 26 33 46 36 37 60 75
91 91 95 97 97 98 99 98 85 73 78 88 95 101 100 99 97 94 96 97 96 99 96 97 102 97 98 98 88 90 92 83 81 83 80 74 70 75 74 64 64 66 65 69 62 48 46 48 44 30 23 32 31 20 21 19 18 27 32 43 47 38 55 78 70 56 48 42 41 37 29 22 20 20 14 13 21 26 36 41 31 42 50 33 41 68 76
90 89 91 95 97 97 99 100 85 70 73 82 91 99 99 96 95 93 95 98 98 98 97 99 100 96 98 97 88 90 92 85 82 79 78 77 74 79 78 68 69 75 76 77 66 52 47 44 42 34 28 35 33 24 22 17 25 44 44 41 41 34 46 63 58 51 49 42 33 20 18 22 21 20 18 18 28 37 41 42 41 47 45 32 43 65 75
88 89 89 90 95 96 97 101 89 71 69 78 87 94 92 89 89 86 88 94 97 98 96 97 98 97 96 95 92 93 93 90 89 81 79 79 76 81 83 75 74 75 75 78 75 67 60 53 50 43 38 43 42 35 36 34 40 46 38 40 43 32 40 52 43 37 37 36 34 22 15 20 19 20 27 26 29 35 36 44 55 50 41 43 54 64 70
87 88 88 87 92 96 96 99 96 79 68 73 88 95 89 89 91 83 80 91 98 97 93 93 97 98 98 97 95 94 94 94 89 81 81 83 78 80 86 82 77 75 72 77 87 81 65 62 69 58 49 54 47 41 52 50 38 34 37 47 45 33 43 50 37 37 45 45 44 31 15 14 16 19 27 31 37 45 42 46 55 49 42 54 65 63 62
90 88 88 86 88 93 95 98 99 89 74 75 90 95 92 96 99 92 90 94 96 93 90 92 97 98 98 98 93 92 94 93 87 82 85 88 85 84 88 86 82 81 79 79 86 82 69 73 80 67 63 68 52 43 58 54 33 30 38 43 39 38 51 53 40 42 54 57 53 42 25 16 15 15 19 27 38 43 37 34 40 40 37 51 66 61 52
94 90 89 88 86 89 94 97 98 94 88 88 94 92 92 96 95 94 99 98 92 88 87 91 97 99 100 100 94 92 92 88 88 88 80 79 86 91 92 93 90 86 84 81 80 77 72 76 76 66 65 67 52 40 45 48 42 36 34 37 44 51 54 57 58 50 45 53 58 52 38 23 16 18 19 24 32 32 29 30 34 38 42 57 68 58 51
95 94 91 89 87 86 90 95 98 95 92 96 98 94 94 96 90 90 98 98 91 87 87 90 94 95 94 92 91 92 90 87 90 92 81 73 81 89 89 92 96 94 88 80 71 66 65 65 62 59 57 52 45 35 28 35 40 37 39 42 48 57 50 49 71 65 42 53 68 54 35 25 27 40 40 33 35 34 29 28 33 44 57 65 61 50 57
96 96 92 90 89 86 87 91 96 96 94 97 100 97 97 99 96 94 98 99 91 87 90 92 90 89 86 83 86 88 86 86 88 92 90 80 76 81 84 89 97 98 88 74 64 60 60 58 53 53 53 45 37 27 20 28 29 30 45 46 44 62 55 42 67 68 42 60 79 51 31 38 50 67 68 47 37 38 33 27 31 43 54 61 57 57 71
96 96 94 92 91 88 86 87 92 96 95 96 99 99 97 97 98 98 99 101 94 88 91 90 86 87 84 80 84 85 84 86 85 88 96 90 77 76 81 88 96 91 75 64 62 59 54 53 54 52 47 39 28 19 19 27 26 26 41 45 47 64 58 42 60 65 51 71 82 48 34 54 68 79 83 66 50 47 44 39 40 43 46 55 65 71 80
95 97 97 95 94 91 88 86 89 93 94 94 97 98 95 95 97 97 97 102 98 91 94 93 84 82 79 76 80 81 82 85 82 82 90 89 83 78 75 80 83 72 57 52 58 59 51 53 62 57 47 40 28 21 23 26 25 26 31 40 53 63 57 49 57 64 59 64 69 58 51 60 70 71 67 59 49 42 41 39 38 43 46 49 63 78 81
93 95 95 96 95 93 90 87 87 90 92 93 94 93 91 92 96 96 97 101 97 90 95 94 81 76 77 76 75 75 76 79 78 77 78 80 85 81 68 64 62 53 49 51 56 60 56 59 71 70 63 54 34 26 31 26 23 31 32 35 48 54 54 53 51 58 65 61 65 73 63 52 58 56 45 42 39 38 49 47 36 47 57 46 48 71 81
92 91 92 96 96 92 92 91 88 87 90 94 94 88 82 85 94 96 94 99 100 95 95 91 81 81 83 77 72 75 78 82 83 79 74 76 80 72 57 52 49 46 48 50 55 65 63 59 65 67 64 58 39 31 35 26 20 33 41 41 44 44 49 55 51 54 70 79 78 70 56 53 61 60 56 57 54 56 67 56 36 46 65 56 42 54 71
93 92 91 95 96 93 94 94 91 88 88 93 94 84 74 79 92 95 91 96 101 96 87 80 77 81 83 76 72 74 78 86 92 87 78 70 63 56 50 47 46 48 53 55 60 70 68 57 55 55 52 51 43 35 35 30 23 29 38 42 45 47 53 64 65 56 58 70 71 58 52 58 62 62 61 57 57 62 57 46 42 51 63 66 53 41 51
95 94 91 93 95 95 95 95 94 90 86 90 95 87 76 75 86 94 93 95 100 94 80 72 74 81 84 81 78 74 72 81 91 92 87 76 63 58 55 49 49 52 57 66 74 76 73 66 61 61 57 50 42 35 34 33 27 26 31 37 43 50 51 55 60 54 46 48 51 49 53 53 52 63 67 55 55 59 41 36 60 68 63 69 64 45 46
94 95 94 93 93 95 95 94 95 93 88 88 93 87 74 71 81 93 94 91 97 97 81 67 73 85 85 79 77 72 67 74 85 90 93 86 73 67 61 58 61 60 59 72 82 78 75 73 67 64 61 54 47 43 41 35 31 35 38 37 40 45 46 50 57 52 46 46 43 46 58 60 52 58 63 53 49 50 45 54 75 74 64 69 70 58 57
93 94 95 94 92 95 95 92 93 96 91 87 90 84 71 69 80 91 93 92 96 96 80 66 73 81 72 65 69 67 63 69 77 82 87 81 68 62 62 62 67 71 73 79 82 76 75 78 76 70 71 73 63 51 45 41 38 41 39 37 44 45 40 49 57 50 49 59 58 52 57 60 54 52 55 53 48 52 64 73 72 66 65 70 74 72 68
95 94 95 94 93 94 95 93 92 96 92 88 93 90 76 73 82 88 91 93 96 96 85 73 73 73 63 60 69 72 72 74 73 74 79 74 66 71 80 80 76 80 85 86 82 79 78 83 85 78 78 86 75 59 62 63 52 43 37 42 56 55 44 52 61 54 52 56 54 54 59 61 60 55 53 56 60 67 75 71 64 67 69 69 75 80 75
95 95 94 93 95 95 97 96 93 94 93 88 92 96 85 78 82 86 88 92 96 99 90 73 67 67 63 62 66 68 72 74 71 71 72 69 74 86 91 89 87 88 91 88 84 82 81 84 88 82 80 86 77 69 77 75 58 50 50 52 57 51 47 56 60 56 57 51 42 54 71 75 72 65 59 59 64 73 79 71 64 67 70 69 74 78 79
96 96 94 95 96 94 95 96 92 93 94 89 91 97 94 86 84 84 86 91 95 96 86 70 67 69 64 62 62 62 64 63 59 61 64 67 79 91 90 89 91 91 90 89 86 84 84 85 84 83 88 90 82 80 84 76 65 64 61 58 58 52 56 66 61 54 63 66 61 68 77 78 75 70 67 65 64 71 82 78 69 68 71 74 72 71 77
99 98 96 95 94 93 93 94 93 94 94 91 92 96 95 92 89 85 86 92 95 93 82 72 75 75 63 54 53 52 55 54 48 49 55 61 73 84 90 92 91 89 91 90 84 83 87 89 86 86 91 89 84 87 87 77 76 76 65 61 66 65 67 72 62 54 61 68 70 71 69 71 74 68 64 67 65 68 76 74 67 69 72 74 72 69 73
99 100 98 95 94 94 91 91 94 96 94 92 93 93 93 94 92 88 88 92 95 93 85 78 79 76 64 55 52 49 46 44 42 41 43 51 64 79 88 89 85 87 93 89 81 83 87 87 86 88 89 85 85 90 84 71 72 78 74 71 68 61 62 64 59 63 71 68 67 67 61 64 71 65 60 64 64 65 70 67 62 64 67 71 75 75 75
100 100 99 97 95 94 92 92 95 95 95 94 91 91 93 92 90 90 91 92 94 96 96 92 81 65 56 57 55 49 42 38 39 40 39 44 53 61 70 70 65 73 85 84 80 85 85 80 81 85 85 85 87 88 79 69 70 77 81 79 66 54 58 62 65 78 82 69 66 72 68 66 71 68 63 62 60 62 68 68 65 66 69 73 76 75 73
100 100 100 99 96 93 93 93 94 95 95 91 88 91 93 88 85 90 93 92 93 94 98 100 83 59 58 65 55 42 40 40 39 39 37 37 39 42 48 51 51 61 80 85 82 83 82 78 79 83 83 83 86 85 75 67 70 76 80 82 76 67 63 63 65 74 76 65 63 69 67 64 68 70 69 67 64 63 67 72 73 72 71 71 72 73 73
100 99 100 100 97 95 93 92 95 97 92 88 90 89 81 74 77 84 87 90 94 95 98 101 87 67 67 70 53 38 39 40 38 38 37 35 36 38 43 52 61 71 78 79 81 84 81 73 74 81 83 80 78 79 75 71 74 79 80 83 82 75 70 71 72 71 72 71 68 68 69 68 65 65 67 68 68 69 71 74 75 73 69 67 65 67 74
100 99 101 100 97 97 94 92 97 97 91 93 93 76 63 69 78 79 79 82 87 95 99 97 90 82 77 68 52 41 39 37 36 40 41 35 37 44 49 55 67 78 77 74 78 83 77 70 70 75 77 73 69 71 73 71 69 72 77 81 79 71 68 77 83 78 75 79 78 76 78 74 64 62 67 71 74 76 75 73 73 73 73 71 64 62 68
100 99 101 100 97 96 94 94 99 98 93 98 91 67 63 83 88 79 81 85 84 90 98 95 91 89 81 64 49 39 34 33 36 40 39 34 36 48 54 53 62 78 85 81 77 76 74 74 72 67 63 65 69 70 68 67 68 73 79 82 80 75 71 75 79 75 69 72 76 80 81 74 64 65 69 70 73 76 74 72 71 68 70 73 68 61 62
100 98 98 98 97 96 94 96 99 97 95 100 96 81 80 91 91 85 89 90 83 85 96 100 95 87 76 63 55 47 40 37 37 37 36 36 43 52 53 52 59 70 74 71 69 71 72 70 68 64 62 64 67 65 63 67 77 86 86 80 75 74 70 72 81 81 70 65 71 78 80 75 69 69 69 69 75 77 73 72 71 65 66 71 68 64 67
95 92 92 94 92 90 93 97 99 98 99 99 97 92 86 86 90 91 86 79 74 74 84 96 94 82 72 64 57 53 46 37 34 37 35 36 42 43 38 38 47 56 59 60 61 65 67 62 57 57 59 61 62 63 62 66 74 80 79 75 75 74 67 66 77 83 75 67 68 73 76 74 71 69 64 64 72 73 67 67 71 67 63 65 64 64 70
91 91 91 89 85 83 92 100 99 98 99 98 98 96 81 65 61 58 54 61 70 71 79 94 93 81 77 70 54 43 38 34 36 41 37 33 34 33 32 36 44 52 60 58 51 54 64 63 54 50 53 58 63 63 60 65 74 79 75 72 76 79 73 68 70 73 70 69 71 71 71 71 71 70 66 63 68 71 66 64 67 63 57 58 60 61 60
90 94 91 86 82 81 88 97 98 98 99 100 100 92 71 55 51 48 52 69 76 67 74 94 97 87 82 74 54 37 33 42 49 45 40 42 41 36 39 46 44 42 49 50 47 55 67 65 54 51 57 63 65 61 58 66 78 82 77 72 72 74 72 68 68 68 69 74 80 80 76 71 68 71 72 66 62 64 64 62 63 63 63 66 68 67 63
91 94 91 85 81 78 77 80 86 93 98 99 93 76 61 63 70 70 73 81 77 68 74 88 94 92 85 74 61 42 31 43 55 49 46 54 49 36 42 52 46 38 42 49 53 59 62 57 53 56 64 65 60 56 62 72 77 77 74 72 70 70 68 64 64 67 71 74 79 81 78 74 70 70 70 64 58 60 65 65 64 65 70 73 74 73 72
91 92 89 84 78 74 69 68 78 93 100 98 86 67 57 62 69 73 82 81 73 78 87 81 78 85 82 76 74 58 35 40 55 53 49 53 48 40 45 49 44 41 42 48 53 53 49 50 53 58 66 67 60 60 69 73 70 68 68 68 66 65 61 57 58 64 71 72 72 74 74 72 70 68 66 64 61 62 66 67 64 64 67 71 74 77 77
88 86 84 80 75 71 70 74 85 94 94 88 74 56 47 48 50 64 81 78 68 82 96 89 84 88 80 75 78 63 41 46 59 55 48 45 42 45 49 45 47 54 49 46 51 51 48 53 54 50 53 59 62 67 69 62 60 65 66 64 64 62 57 57 59 63 66 66 66 68 68 66 68 71 70 66 64 63 65 68 69 69 71 75 78 80 79
86 84 81 79 77 77 80 81 80 78 75 69 58 46 45 53 60 73 87 84 74 77 87 93 99 91 73 74 80 62 47 56 60 54 56 53 42 44 46 38 44 54 45 39 50 54 51 57 56 47 51 63 70 72 66 54 58 68 65 61 66 66 60 61 62 60 59 57 54 58 64 64 66 72 72 67 63 62 66 71 74 74 74 77 80 81 82
86 85 82 84 89 93 90 79 69 67 64 56 50 54 64 73 79 88 96 95 89 84 85 93 98 81 63 67 68 48 44 59 58 55 68 64 43 42 46 38 38 43 36 37 53 53 44 48 49 45 58 70 62 56 58 55 55 61 61 64 70 67 61 64 64 59 59 59 56 58 64 63 60 65 71 69 67 68 71 75 77 76 77 81 84 86 86
91 90 88 89 92 91 82 68 61 64 60 51 56 73 82 81 81 87 90 91 92 93 93 96 94 78 65 66 59 39 35 49 55 61 71 61 41 41 44 37 36 37 30 36 52 49 40 45 40 36 58 72 51 36 49 54 45 45 56 65 68 66 64 66 65 61 64 71 72 70 67 59 54 61 71 74 74 75 78 79 78 77 79 81 83 84 86
96 92 89 86 81 76 71 64 63 68 69 66 70 77 78 78 81 81 81 86 91 91 91 91 88 76 62 59 58 46 35 40 54 64 63 55 48 44 36 31 35 32 25 39 57 53 45 46 36 30 55 74 53 35 47 55 48 51 63 67 67 67 65 63 62 62 64 69 72 71 67 62 61 65 70 72 73 75 78 78 77 77 78 79 80 81 82
94 88 86 85 81 77 75 70 69 76 79 76 75 77 79 81 77 65 66 79 84 77 74 77 80 79 69 59 57 52 40 39 50 53 50 53 56 44 32 36 40 28 25 45 61 52 39 36 33 37 60 71 53 42 53 62 59 62 67 66 65 65 61 57 58 58 56 58 63 63 62 66 69 70 71 72 74 76 78 80 79 78 78 79 80 79 75
93 89 88 89 85 80 78 74 76 83 83 76 76 80 80 77 72 65 65 70 65 58 60 66 69 74 71 59 53 54 49 42 43 43 44 54 57 43 36 40 35 26 37 57 58 41 30 26 29 44 62 64 56 55 60 61 59 60 61 61 63 63 58 56 56 54 52 58 64 64 62 66 70 70 69 70 72 74 76 78 80 81 78 74 72 70 67
97 94 91 90 84 76 76 77 77 82 86 85 87 89 82 73 70 67 62 59 52 47 50 55 54 56 57 53 52 55 50 41 42 45 46 49 48 39 33 33 32 39 55 57 41 30 31 33 40 53 60 58 58 64 65 63 64 63 60 61 65 63 58 57 57 54 52 53 54 54 57 63 66 65 61 61 66 72 73 72 73 74 71 66 63 64 64
97 88 83 86 82 76 80 81 72 72 84 88 88 91 90 83 76 68 63 64 60 48 44 52 59 64 69 70 66 57 45 40 47 50 45 41 40 34 29 37 50 54 49 39 32 34 40 44 49 55 56 55 61 68 68 67 68 63 58 60 65 63 59 57 56 55 55 53 50 50 56 62 65 63 60 59 64 70 74 73 69 66 65 65 66 65 64
94 84 80 87 87 81 83 81 69 67 79 81 73 74 81 80 77 71 63 58 51 41 40 51 63 71 81 85 79 68 58 49 47 48 45 40 38 35 36 49 57 48 33 31 34 34 36 42 49 51 53 58 64 67 67 68 67 62 59 62 64 63 62 62 62 61 61 60 59 61 64 66 67 68 67 64 62 62 66 69 66 62 62 66 70 70 67
92 82 79 90 92 82 81 87 82 76 76 69 63 68 72 68 65 64 55 47 47 46 45 49 56 68 81 84 80 79 74 56 42 44 47 40 35 37 41 43 41 34 31 35 35 34 41 52 55 52 56 62 66 67 69 69 65 61 61 62 63 62 63 65 65 64 63 63 65 67 67 67 67 69 69 66 60 55 57 60 60 58 59 63 67 69 69
92 81 79 93 97 83 80 88 88 79 71 65 63 69 71 65 64 64 58 53 55 56 54 59 68 77 84 83 80 85 83 63 43 43 44 36 33 40 41 35 33 35 32 30 35 48 59 58 50 49 57 64 67 70 71 67 63 63 64 64 65 64 64 63 62 60 61 64 67 67 67 67 68 68 68 66 61 56 54 55 56 56 57 61 64 66 66
91 83 82 91 92 83 81 85 82 73 69 68 67 68 67 68 73 71 61 57 62 64 68 76 81 82 86 88 87 88 85 69 51 46 42 34 32 37 38 35 38 42 40 44 60 77 75 59 49 53 61 64 65 69 68 64 63 65 65 65 66 66 66 65 62 57 57 63 67 68 67 66 64 64 65 67 63 57 53 53 55 56 58 61 63 64 66
86 88 90 91 87 83 84 87 84 77 72 71 73 72 68 67 68 62 56 62 73 75 74 80 82 79 79 82 83 82 80 70 55 46 40 34 34 38 39 36 36 40 50 66 79 78 64 51 49 55 60 62 64 66 67 67 66 64 63 64 65 65 65 65 60 53 51 57 63 65 63 60 60 63 66 66 64 58 53 53 54 56 58 60 62 63 65
85 89 94 95 93 90 88 87 89 87 81 76 77 75 67 63 61 56 58 73 83 76 70 75 79 74 73 77 81 82 79 69 56 46 38 35 38 42 39 36 40 52 67 75 70 56 47 48 53 57 61 63 63 64 67 69 67 64 64 66 66 65 63 61 58 53 49 49 52 57 58 57 60 64 64 61 58 54 50 51 54 57 58 60 61 62 65
87 89 91 91 90 88 85 85 90 91 85 78 72 67 64 64 59 53 60 78 86 81 77 77 72 68 75 84 86 82 76 66 57 51 46 45 46 45 39 41 54 67 71 66 54 45 45 50 54 56 59 62 62 64 67 68 66 66 68 68 67 65 61 57 57 57 52 45 44 49 52 53 55 56 54 52 52 53 52 54 56 57 57 59 60 62 63
87 91 92 88 85 83 83 84 85 84 79 73 67 63 62 62 55 53 66 81 84 81 82 77 66 67 80 84 78 75 73 66 56 51 49 49 51 50 47 51 61 66 62 56 52 51 53 56 56 55 57 59 60 61 65 67 69 69 69 67 65 63 60 58 58 56 50 44 41 44 49 52 52 51 52 54 58 61 62 59 56 54 56 57 58 59 61
Wind_Speed
26 27 28 29 30 31 32 33 34 37 37 33 26 14 3 2 3 2 7 10 5 2 1 2 2 3 5 5 7 8 6 4 2 2 4 4 4 4 4 5 5 5 6 5 2 2 3 6 7 6 6 11 10 6 9 13 9 1 2 5 5 4 1 3 3 1 1 4 3 3 6 6 4 3 3 3 3 4 6 5 4 3 3 2 3 3 5
26 27 28 29 30 31 32 33 35 36 35 32 22 8 1 3 3 2 6 9 4 1 2 2 2 4 6 7 8 6 5 5 4 3 4 3 3 3 4 4 5 5 5 4 4 4 3 4 6 6 5 6 9 7 8 12 10 2 3 4 3 3 2 3 4 3 2 2 2 1 1 3 4 3 3 4 5 5 3 3 3 2 4 5 6 4 6
26 27 28 28 29 31 32 34 37 36 33 29 18 4 2 3 2 1 4 7 4 1 2 3 4 5 7 9 9 6 3 6 7 6 4 3 4 3 3 5 6 6 5 4 6 7 5 3 5 3 4 2 5 8 8 10 10 8 12 9 1 2 2 3 5 6 7 6 5 4 3 3 3 2 3 4 6 7 4 3 5 1 3 4 6 5 4
26 27 28 28 29 31 32 34 38 37 31 27 18 5 2 3 1 2 2 4 2 2 3 3 3 4 6 7 7 6 4 4 6 7 4 4 5 4 4 5 5 6 5 3 5 5 6 6 4 3 2 1 2 6 9 9 10 12 14 10 1 3 1 2 6 6 6 7 6 5 5 4 4 3 0 3 5 7 5 5 4 4 4 3 4 5 5
25 26 27 28 28 30 32 34 37 37 29 23 15 4 2 2 1 3 4 1 1 1 2 2 2 4 4 3 4 6 7 8 3 5 3 3 4 4 4 3 2 4 5 4 4 4 2 3 3 4 4 3 3 3 6 6 9 9 5 6 1 4 3 2 4 4 6 7 7 4 5 5 5 4 1 5 4 8 7 5 5 5 6 3 6 5 9
25 26 26 28 28 29 31 32 36 37 28 19 12 2 1 2 1 2 3 3 3 3 4 5 6 7 5 2 3 6 8 9 5 1 2 2 2 3 2 3 5 8 8 3 3 5 5 2 3 4 1 4 4 3 3 2 5 8 3 4 1 4 2 4 1 1 2 2 2 2 6 5 5 7 4 5 5 8 7 5 5 6 6 6 7 7 11
25 25 25 27 27 28 29 30 34 36 28 19 12 4 2 2 2 2 3 3 5 6 9 10 8 6 6 3 3 5 8 9 6 4 2 2 2 3 4 7 11 13 11 3 1 2 3 3 4 4 6 5 2 2 2 4 2 4 4 4 2 3 2 4 0 3 5 5 4 3 7 5 4 5 5 5 6 8 7 4 5 6 4 6 10 9 8
24 25 25 26 26 27 28 28 31 35 31 21 12 6 4 3 3 4 3 4 6 5 7 8 5 2 3 3 3 4 7 9 7 5 3 3 4 4 4 10 12 11 9 4 1 3 2 0 3 2 6 4 2 4 3 1 2 3 4 1 1 3 2 5 2 4 5 6 7 5 6 6 5 5 5 3 5 4 4 4 5 5 0 2 8 9 3
23 24 24 25 26 26 27 26 28 32 30 20 9 6 8 6 7 7 5 4 5 5 5 6 4 2 2 3 6 5 5 7 7 6 3 1 3 3 4 10 10 7 8 6 6 6 3 4 8 5 3 5 4 2 4 5 0 1 4 1 1 3 1 3 4 4 4 5 9 7 5 6 1 5 7 2 5 3 2 3 4 6 4 2 5 7 4
22 23 24 25 25 25 25 26 26 28 28 20 8 6 10 10 8 7 5 4 3 5 7 6 4 4 4 7 9 5 5 6 5 4 2 1 2 2 5 7 6 5 7 8 9 10 8 10 10 8 7 9 8 4 9 12 6 3 3 1 1 2 2 1 4 3 4 5 7 5 6 6 3 6 6 4 3 3 2 1 2 6 8 6 5 6 6
21 22 23 24 24 24 25 24 24 25 26 22 12 9 11 11 7 5 3 3 3 4 5 5 4 4 7 12 11 6 6 8 5 2 2 3 3 4 6 6 4 4 5 7 10 12 12 13 12 10 10 12 10 6 13 15 10 6 4 1 1 2 4 2 2 3 2 6 6 3 5 4 6 6 5 5 5 6 6 2 1 4 5 5 5 4 5
20 22 23 23 23 24 23 23 24 23 22 22 17 13 14 14 9 5 2 4 5 4 4 6 5 5 9 13 11 8 8 9 8 4 3 5 6 6 5 3 3 4 6 8 10 11 11 11 10 9 9 8 4 6 11 12 9 7 6 5 2 3 4 2 1 4 1 4 5 5 4 6 6 6 4 3 4 8 10 5 4 2 4 6 8 7 9
19 20 21 22 22 23 22 22 23 22 21 22 20 16 18 17 9 3 3 4 5 4 5 8 10 9 11 13 12 10 9 7 7 5 2 4 7 7 4 4 5 7 8 8 8 6 4 5 4 3 5 5 5 5 6 8 8 7 6 4 4 5 3 2 2 3 1 2 4 4 5 5 6 7 5 2 1 5 9 7 8 6 3 3 8 10 10
19 19 20 21 22 22 22 21 22 22 21 22 22 20 19 16 7 3 4 3 4 5 5 7 9 10 13 14 12 10 9 7 6 6 4 4 6 8 7 5 6 10 10 8 7 3 3 3 4 4 5 6 5 4 1 2 5 8 8 2 3 7 4 2 3 2 2 3 1 1 1 3 4 4 2 2 2 3 6 5 3 6 6 2 6 9 9
19 19 20 20 22 22 21 20 21 22 21 21 23 22 18 14 10 7 4 2 5 6 3 2 6 11 13 13 11 9 8 7 7 5 3 4 5 6 7 8 9 11 8 3 2 3 3 3 4 4 4 3 1 2 2 1 0 5 8 4 4 7 4 2 2 1 1 4 2 3 3 1 4 5 6 5 3 6 7 7 2 6 7 4 3 9 10
18 19 19 19 21 21 21 20 20 21 22 21 23 23 17 13 13 11 6 3 3 4 4 4 5 8 8 9 8 7 5 6 6 5 5 6 7 9 10 10 9 8 6 3 3 3 4 3 2 1 1 2 1 2 2 1 1 3 5 7 8 8 4 4 4 2 1 4 3 1 2 2 5 6 9 7 3 5 6 6 2 7 7 6 0 7 9
17 18 18 19 20 20 21 20 19 21 21 21 22 23 17 13 15 14 8 3 2 5 7 6 5 4 4 6 6 5 4 5 4 3 4 7 8 9 11 10 9 8 7 4 3 4 5 3 2 2 2 3 1 1 2 1 2 2 4 6 7 6 4 4 4 1 1 2 2 1 2 2 4 6 8 7 3 7 8 2 5 7 6 6 2 4 8
16 17 18 19 19 20 20 20 19 20 20 21 21 21 16 14 15 13 6 3 3 5 5 2 5 4 3 4 5 4 4 5 4 2 4 4 4 8 9 7 6 7 6 4 3 4 4 3 2 2 3 4 2 2 1 1 2 2 0 3 3 3 3 3 3 2 1 2 2 1 2 3 4 5 7 6 1 8 6 5 7 5 6 6 3 1 6
16 16 17 18 19 19 19 20 20 19 19 21 21 19 17 14 14 13 8 3 2 5 7 8 7 6 6 5 6 5 4 4 4 3 4 4 6 9 7 3 3 5 4 3 3 3 3 3 1 1 1 4 3 2 2 1 1 2 3 4 2 1 2 2 3 3 1 2 3 0 3 3 3 4 5 1 4 3 3 5 4 4 5 5 5 4 2
15 15 16 17 18 18 18 19 20 19 19 20 20 19 19 14 12 13 11 4 3 7 12 11 8 9 7 6 6 6 6 5 3 3 4 5 6 7 5 3 4 5 4 3 4 2 2 3 2 1 2 2 3 2 3 3 3 1 2 3 2 3 2 0 2 3 2 3 3 2 2 3 2 3 3 3 4 5 6 2 1 4 4 3 4 4 1
16 16 16 17 17 17 18 18 19 19 20 20 19 19 19 16 15 17 15 9 5 4 6 8 9 12 15 15 15 14 11 9 7 4 3 5 5 3 2 3 3 3 2 2 2 2 1 2 2 2 1 2 2 1 1 3 4 3 2 2 2 2 2 1 2 2 3 3 1 2 4 5 3 2 2 1 1 4 5 3 1 2 1 2 3 4 4
15 16 17 17 17 17 18 18 18 19 19 20 20 18 17 20 22 21 19 14 9 9 15 22 25 28 32 31 25 21 20 20 22 16 7 4 4 0 3 4 3 1 1 1 1 2 2 1 2 2 1 2 3 1 0 1 2 5 4 3 2 1 2 3 2 1 3 4 5 5 4 5 4 3 4 2 1 1 4 5 3 3 2 1 2 3 4
15 15 17 18 18 17 18 18 18 19 19 20 21 18 18 23 24 22 18 13 10 13 23 28 25 24 24 21 18 17 18 21 25 22 13 7 4 3 3 3 2 2 2 1 1 1 1 0 0 1 1 1 2 2 1 1 0 3 3 2 1 3 2 2 3 1 1 2 1 1 0 3 5 4 3 3 5 3 3 5 5 3 4 3 1 1 2
15 16 16 18 18 19 19 18 18 19 20 20 21 21 21 22 20 18 14 8 4 6 10 11 8 8 9 14 23 27 23 17 16 19 14 11 8 2 3 4 3 1 2 3 2 2 1 1 0 1 0 1 1 1 1 1 0 1 1 3 4 3 3 3 3 2 2 1 3 3 1 3 5 4 4 5 5 4 3 5 4 2 4 5 3 1 2
17 17 17 17 19 19 19 20 19 20 21 21 22 23 23 21 18 14 10 5 3 4 4 4 6 9 12 21 28 27 24 21 20 21 16 13 14 7 3 5 7 5 3 3 1 2 1 0 0 1 1 1 0 0 1 1 1 0 2 0 3 2 4 3 2 3 2 3 4 4 3 3 4 3 3 4 4 5 5 3 3 4 5 5 4 1 2
19 19 18 18 19 19 20 20 20 20 21 23 23 24 24 25 22 14 9 7 4 4 4 4 8 13 19 26 29 28 25 25 25 22 18 18 22 18 8 4 6 5 2 2 2 2 1 1 1 2 2 1 2 3 2 2 1 0 1 3 3 1 3 1 2 3 2 1 1 1 2 5 6 5 4 2 2 4 6 6 5 6 6 6 6 4 2
19 19 19 19 19 19 20 20 20 21 22 23 25 27 28 29 24 15 12 8 3 2 3 3 6 14 20 23 30 33 29 25 25 23 20 19 18 19 12 4 3 3 3 2 2 2 2 1 0 3 3 2 2 3 2 2 1 1 1 3 1 2 1 0 3 4 1 3 2 2 3 2 2 3 4 3 2 5 6 6 6 6 5 5 6 7 6
20 20 20 20 19 19 20 20 20 21 22 24 28 30 25 18 12 8 9 10 7 3 4 3 7 14 18 19 25 31 29 26 24 21 19 18 13 16 12 5 4 3 4 3 1 1 1 1 2 2 2 0 1 1 1 0 1 1 2 3 1 3 4 3 4 4 4 6 5 4 5 4 3 2 2 3 3 6 7 5 4 5 4 3 5 6 6
21 21 20 20 20 20 19 20 21 21 21 24 27 24 13 6 8 8 6 5 6 6 5 4 6 8 9 14 24 29 29 27 25 20 19 16 10 13 10 6 5 4 3 4 3 1 3 3 2 2 2 2 2 1 2 1 1 2 4 4 3 3 3 4 6 5 2 4 5 4 5 4 4 3 3 3 3 6 6 4 4 5 5 3 3 6 5
21 21 21 21 21 21 20 20 20 19 19 21 21 14 5 4 8 13 12 7 8 6 3 3 4 4 6 10 15 18 21 23 23 19 16 11 5 10 9 7 6 2 3 3 2 2 3 2 2 2 2 2 4 1 1 1 1 4 5 4 4 4 3 3 5 4 3 4 4 4 5 5 4 4 4 4 3 5 5 3 4 5 6 4 2 2 3
21 21 22 22 23 22 21 20 19 18 19 17 11 3 1 0 2 7 2 12 19 11 2 3 3 4 6 6 6 9 16 20 16 12 10 6 4 8 9 8 4 2 3 3 2 2 2 1 1 2 2 1 4 2 2 3 1 4 5 5 5 3 2 3 3 3 4 4 4 5 5 3 2 3 4 5 4 5 5 3 4 4 5 5 4 2 0
21 21 22 23 24 24 23 21 19 18 19 17 12 10 11 13 12 10 14 22 20 8 0 2 3 3 4 4 6 11 14 14 9 6 5 4 3 3 4 4 3 2 4 3 1 2 2 3 2 2 2 1 3 2 2 4 2 5 6 5 5 4 3 3 2 1 3 4 6 6 4 3 2 2 3 0 3 5 5 4 5 5 6 6 6 4 2
22 21 21 23 25 25 25 23 21 21 21 20 20 22 22 20 17 15 17 18 12 3 3 1 2 3 3 4 8 10 7 5 4 3 3 3 2 1 2 1 1 1 1 2 2 2 2 2 3 1 3 0 3 2 1 2 5 6 5 5 5 5 2 2 3 4 4 3 4 5 4 3 3 4 4 2 4 5 4 4 4 6 7 7 7 6 5
21 21 21 23 25 26 27 26 24 20 16 14 15 15 13 13 12 11 9 8 4 2 2 1 1 4 4 3 5 6 4 4 3 2 3 4 2 3 1 2 2 1 2 2 1 1 2 0 2 2 3 1 2 1 2 4 6 5 4 5 5 2 3 4 4 5 4 4 5 5 6 5 3 3 4 4 4 4 5 5 5 6 6 6 6 6 5
20 21 22 23 24 26 26 22 15 9 5 6 8 9 12 15 14 11 7 7 4 1 1 2 2 3 3 3 4 6 4 4 3 3 3 3 1 2 2 0 1 1 3 1 1 0 2 1 2 2 2 1 1 1 3 5 6 4 3 5 5 3 6 4 2 3 4 5 6 5 5 6 6 5 4 2 1 3 5 5 5 5 5 5 5 5 4
20 20 21 23 24 22 18 10 2 2 1 5 12 17 18 18 16 11 9 10 7 3 2 1 2 3 2 2 4 5 4 4 4 3 2 2 2 1 2 4 1 3 1 2 1 2 3 2 2 1 2 1 2 5 6 6 6 5 6 7 6 5 6 6 6 5 4 5 7 6 5 6 5 5 4 2 1 3 5 5 6 6 6 5 5 5 5
18 19 21 21 18 12 7 2 3 1 7 15 22 22 17 13 9 6 6 8 9 8 3 1 3 4 2 3 5 4 4 3 3 4 3 2 2 2 2 3 2 3 1 2 1 3 2 1 3 2 3 3 4 6 6 6 7 7 6 6 6 5 6 7 8 7 6 5 6 5 5 4 4 4 3 3 2 3 6 5 5 5 5 4 4 4 5
17 17 17 13 7 4 2 2 1 10 21 25 22 15 7 2 1 2 3 3 5 6 3 2 5 4 1 4 5 3 4 4 3 4 3 2 1 2 1 2 2 1 1 2 4 3 1 2 2 2 4 4 4 5 6 4 5 6 6 6 6 7 7 7 7 8 7 4 3 3 4 4 2 3 4 4 2 4 5 5 4 5 5 4 4 4 5
13 12 9 5 2 2 4 7 13 22 25 19 10 3 1 1 1 1 2 2 2 3 2 3 5 4 4 7 7 4 3 3 3 3 3 2 1 2 1 0 1 1 1 2 4 0 2 1 1 1 3 5 4 4 4 3 2 2 4 6 6 6 7 6 6 7 8 6 5 6 6 6 5 5 5 4 5 5 4 4 5 5 5 5 5 6 6
9 7 4 2 3 7 14 20 24 21 13 5 2 1 0 1 1 2 2 1 2 2 3 3 4 4 7 8 7 5 5 5 3 2 4 3 2 0 1 0 1 1 1 3 4 1 2 1 1 0 3 5 4 3 2 3 2 2 3 5 6 6 6 6 5 5 6 5 4 4 5 6 6 6 6 7 7 6 5 5 5 6 6 7 7 7 6
5 4 3 4 9 17 24 25 19 9 2 1 1 0 1 2 2 1 1 2 2 3 3 3 3 3 6 7 6 5 5 5 4 3 2 4 3 1 1 1 1 2 1 4 3 2 3 1 1 2 4 5 4 2 2 4 5 5 4 5 6 6 7 7 6 6 7 7 6 5 5 6 6 6 6 6 7 6 5 4 5 7 9 9 8 8 9
7 8 9 13 17 19 17 12 5 1 1 0 1 1 2 2 2 1 1 2 2 3 3 3 4 4 5 6 5 4 4 5 3 2 1 4 3 1 1 1 1 2 2 4 1 3 2 0 1 3 5 5 4 3 4 5 5 4 5 6 6 6 7 8 7 7 8 8 6 5 6 7 6 7 9 9 8 7 6 6 7 8 11 12 12 11 11
12 12 12 11 10 7 4 2 1 0 0 0 1 1 2 2 1 2 2 2 2 2 2 2 2 3 2 3 3 3 4 4 3 1 1 3 2 1 1 1 1 1 4 1 3 3 1 2 3 5 5 4 4 4 5 5 5 5 5 6 6 6 7 8 7 7 8 9 8 7 8 9 8 10 14 15 12 8 7 9 11 12 13 14 14 12 10
9 7 5 3 2 1 1 1 0 1 0 1 1 1 2 2 2 2 2 2 2 3 3 2 2 3 3 2 2 2 3 3 1 1 1 2 1 2 1 1 2 3 2 1 2 1 3 3 4 5 4 4 4 5 6 6 5 6 5 5 6 7 7 7 6 6 7 7 7 8 9 10 10 11 13 16 15 11 9 10 13 15 14 14 13 12 10
3 2 1 1 2 1 0 1 1 1 2 2 2 2 2 3 2 2 3 3 4 6 7 5 4 4 5 3 2 2 2 1 1 1 1 1 0 0 2 3 2 0 1 1 0 0 1 3 5 4 4 6 5 5 6 5 5 6 5 5 6 8 7 6 6 5 5 5 6 7 8 9 9 8 9 12 15 15 13 11 13 14 14 13 12 11 9
1 1 1 1 2 2 1 1 2 1 1 1 0 1 2 3 4 4 4 3 5 6 7 7 7 7 5 2 1 2 2 0 1 2 1 2 1 2 2 1 1 2 1 0 1 1 3 5 5 5 6 7 6 6 6 5 5 5 6 6 6 8 8 7 6 5 5 6 8 8 8 8 9 9 9 10 13 15 14 14 13 12 10 10 11 10 9
1 0 1 1 2 2 1 2 3 2 2 2 2 3 4 4 5 4 4 4 5 6 7 7 6 5 3 1 0 2 2 0 1 2 0 2 1 2 1 2 1 1 1 1 2 4 5 5 4 4 5 6 6 6 6 5 5 6 6 6 7 8 8 7 6 5 6 7 8 8 8 9 10 11 10 10 11 12 14 14 12 10 8 9 10 9 9
1 1 1 1 2 2 2 2 2 3 3 3 3 3 4 4 4 4 4 4 4 6 8 8 4 2 1 1 1 1 2 1 1 2 1 1 1 0 2 1 1 2 2 4 5 5 4 4 5 6 6 6 6 7 6 6 6 7 7 7 7 7 8 7 6 6 6 8 8 7 7 9 12 12 11 9 9 10 12 12 11 10 10 11 10 9 8
1 1 1 1 1 2 3 2 3 4 4 3 4 4 4 4 4 5 5 4 4 6 8 6 2 1 2 1 0 0 1 1 1 1 1 1 1 1 1 1 2 2 2 3 4 4 4 5 5 6 5 6 6 6 6 6 7 7 7 7 7 7 7 7 6 7 7 8 9 9 10 11 13 12 11 9 8 9 10 11 11 11 12 12 11 9 8
1 1 1 2 2 3 3 2 3 4 4 4 4 4 4 5 6 6 5 3 4 6 6 3 0 1 1 1 1 1 1 2 1 1 1 2 2 2 2 1 3 4 4 4 4 4 5 4 5 6 6 6 7 7 6 7 7 7 7 6 6 7 8 8 8 7 7 8 10 10 11 11 12 12 12 12 12 11 10 10 11 13 13 12 11 11 10
2 2 2 3 3 3 2 2 2 4 5 5 5 5 5 5 6 6 5 4 3 4 4 2 1 1 1 1 0 1 1 1 2 1 1 2 1 2 2 1 4 4 4 4 5 5 5 4 6 6 6 6 6 6 6 7 7 7 6 6 7 8 9 10 9 8 9 10 10 9 8 9 12 14 15 15 14 11 8 7 10 13 14 12 11 11 11
2 2 2 3 4 4 3 3 3 4 5 5 5 5 5 5 6 6 6 4 3 3 3 3 2 0 0 1 1 0 0 1 2 0 1 1 1 2 2 3 5 4 4 5 5 2 2 4 6 7 7 7 7 6 6 6 6 6 6 7 8 8 8 9 9 10 10 10 9 9 9 11 15 17 17 14 11 7 5 6 9 12 13 13 12 11 12
Wind_Direction
349 349 349 350 351 350 350 350 348 352 358 355 347 340 316 270 311 259 202 197 173 99 265 223 184 234 251 258 263 264 262 252 253 297 269 218 184 210 232 232 229 220 221 227 223 210 241 247 223 194 193 203 218 221 171 190 228 219 182 230 197 175 146 154 196 238 270 305 350 116 151 143 149 202 201 151 150 152 150 170 186 165 176 140 109 183 259
350 350 350 351 352 351 351 350 349 354 359 355 344 331 299 289 283 249 203 193 171 77 273 268 266 271 282 284 281 272 241 232 228 237 257 222 178 208 229 220 216 220 225 218 214 208 217 280 259 205 186 199 204 192 162 187 210 197 208 225 176 190 209 127 130 122 137 279 322 356 123 137 165 217 219 188 156 143 151 137 122 182 215 154 132 192 250
351 351 351 352 353 353 352 351 351 354 359 358 348 311 272 304 260 225 203 188 176 186 244 284 290 296 306 303 305 305 255 229 219 214 242 237 208 230 240 230 237 248 248 235 242 234 194 231 281 223 174 165 176 176 178 194 202 217 240 247 163 175 211 111 125 149 168 189 201 208 192 171 187 193 216 208 153 146 174 134 110 205 238 154 146 191 253
353 352 352 353 354 354 353 352 353 355 359 360 351 310 267 341 329 315 275 192 192 224 231 262 269 292 315 314 311 316 315 285 222 203 233 245 225 243 252 250 262 267 274 271 256 245 191 195 279 305 201 134 124 175 186 198 200 209 237 254 151 108 330 101 129 151 174 189 211 209 156 151 181 148 203 244 160 133 121 113 139 188 180 180 207 174 139
354 353 353 354 355 356 355 355 354 357 2 3 353 307 224 12 2 330 330 282 248 241 222 232 246 278 303 313 308 308 313 317 284 185 206 240 240 256 252 252 276 287 305 311 279 295 289 212 271 287 231 141 93 174 176 194 196 173 207 272 126 88 337 322 133 160 190 193 219 216 128 130 157 136 239 256 165 114 105 138 180 154 133 206 246 165 140
355 354 354 355 356 357 358 357 357 359 5 12 10 352 259 3 335 307 332 309 305 320 302 294 289 290 292 272 283 302 312 325 333 254 242 275 297 313 303 292 321 328 322 302 269 310 339 347 305 301 312 86 66 24 23 276 203 147 116 314 70 105 294 268 193 280 266 199 240 174 125 128 134 134 184 228 160 127 129 173 182 138 142 202 208 171 161
356 355 355 355 356 358 359 360 359 359 6 20 30 22 334 346 312 309 333 307 296 295 295 300 298 296 308 303 274 302 319 327 328 308 313 338 336 6 354 326 336 337 323 306 198 308 354 356 314 353 27 33 73 81 20 308 275 113 82 342 30 100 267 261 155 8 336 344 2 100 129 135 132 148 189 193 158 152 146 157 164 145 182 199 166 167 185
357 356 356 356 357 359 359 2 2 1 7 20 32 34 20 4 316 318 322 297 291 282 295 312 308 282 313 314 295 312 323 326 328 321 314 312 326 14 355 322 328 328 318 329 301 254 176 172 282 13 26 352 218 155 152 242 324 90 119 290 344 97 242 261 71 44 324 338 10 45 119 142 168 201 224 159 119 137 136 128 137 127 238 240 146 147 213
359 358 357 356 357 358 359 3 3 4 10 15 15 17 8 334 301 310 314 302 312 320 321 325 320 327 3 332 323 330 320 316 320 311 278 275 357 7 333 322 324 319 322 331 304 283 249 232 246 243 249 251 230 177 145 143 141 199 152 183 329 95 219 288 56 55 301 344 11 9 83 101 162 243 247 213 114 127 184 175 168 148 133 76 108 139 191
359 359 358 356 357 358 359 3 4 6 12 14 2 341 345 329 307 313 310 285 321 340 328 327 341 355 355 334 321 304 277 288 302 308 306 72 63 352 312 322 328 323 326 317 294 289 276 257 253 243 240 253 258 215 157 156 168 193 160 156 285 123 102 7 81 85 299 338 357 359 87 87 303 256 229 216 151 134 161 205 185 154 137 132 159 190 196
357 359 359 358 357 358 359 2 4 6 10 11 358 324 329 332 317 312 309 286 317 350 331 333 360 348 328 327 322 306 314 331 337 339 315 310 319 308 302 312 318 302 285 267 269 273 268 266 271 268 262 261 255 194 158 165 172 168 149 111 332 76 77 59 104 112 316 321 341 25 110 150 246 240 201 201 183 146 133 120 189 166 149 143 163 181 161
354 355 358 358 356 357 358 359 1 5 6 3 352 331 330 334 318 296 322 313 311 337 332 315 316 308 314 325 324 317 335 347 338 312 258 280 308 305 278 261 253 257 239 233 254 267 267 274 278 270 265 259 223 130 138 162 172 160 149 141 121 64 66 50 41 100 100 327 19 88 166 216 251 275 272 232 185 134 116 67 18 80 124 117 125 143 159
352 351 354 357 356 356 357 357 359 2 1 358 352 338 334 338 325 286 328 312 293 324 329 304 299 305 319 329 329 320 322 330 326 316 271 279 307 307 281 208 210 255 270 270 278 278 269 297 314 298 305 341 31 64 110 150 160 141 127 131 130 114 94 60 36 79 93 14 64 136 210 256 301 317 316 303 57 101 97 57 17 6 12 113 150 162 168
350 349 350 353 355 355 355 356 357 357 358 356 350 342 340 343 332 294 320 312 286 304 304 296 309 324 330 331 331 326 324 328 336 343 342 308 298 294 289 275 265 278 285 292 308 350 66 17 10 2 344 9 25 356 7 154 153 125 114 113 123 119 108 47 43 62 124 115 117 217 300 333 330 325 300 217 201 153 126 94 6 324 333 356 166 172 171
348 349 348 349 353 354 353 353 355 355 356 354 348 345 350 353 341 315 301 294 303 304 272 247 326 332 327 322 323 327 334 342 343 337 316 280 281 287 292 297 300 298 293 298 352 30 59 45 38 21 351 15 94 285 314 343 322 111 118 126 97 99 115 124 98 5 87 101 64 14 54 330 265 261 267 265 211 172 139 106 10 300 316 347 155 173 181
347 348 348 348 350 352 351 351 353 352 353 354 349 346 353 6 357 336 313 293 298 290 264 270 308 322 316 305 308 322 333 334 336 332 322 319 319 321 321 318 318 321 332 16 41 40 52 54 64 74 282 249 183 266 303 24 360 17 76 87 72 68 87 112 98 21 17 93 95 111 147 224 250 258 275 275 204 148 110 89 331 288 299 318 355 164 177
345 347 348 347 348 349 350 350 350 350 352 354 348 340 345 4 359 340 317 279 280 276 270 279 305 320 317 303 307 327 330 324 341 342 317 322 325 326 331 331 334 349 10 33 41 40 48 43 23 32 286 267 117 126 287 21 90 351 14 53 56 45 47 75 83 41 351 92 100 209 209 237 252 258 271 263 185 93 83 130 251 271 284 293 286 162 166
343 344 346 347 347 347 348 349 348 348 349 350 345 337 339 356 360 349 323 278 299 277 254 314 346 306 270 283 302 318 319 314 331 316 283 292 320 325 330 337 342 354 11 32 44 38 36 31 37 36 299 292 38 88 288 345 126 216 227 78 70 44 43 79 121 129 94 97 106 280 273 262 260 260 259 254 69 69 89 199 230 264 283 289 302 241 160
340 342 344 346 347 346 346 348 348 347 346 348 347 339 337 351 7 5 345 304 290 272 276 315 321 265 247 274 283 290 304 293 291 308 314 327 325 319 321 346 5 355 360 28 45 46 29 5 354 83 341 314 346 18 333 315 205 203 134 107 114 110 42 56 132 146 143 118 115 9 277 253 249 264 265 270 80 96 210 222 218 241 273 311 342 327 166
338 341 342 343 344 344 344 345 347 347 345 346 346 336 329 338 358 355 342 314 284 288 284 282 258 236 258 290 278 284 308 302 287 311 319 307 316 337 354 359 351 349 359 30 31 24 24 350 317 47 48 310 307 349 336 319 317 335 110 125 170 167 142 281 203 179 137 79 76 94 216 247 301 336 338 35 95 185 214 235 286 241 250 358 6 330 280
336 338 339 340 340 340 341 341 344 346 343 344 344 332 323 326 334 336 330 311 288 286 281 277 270 270 277 275 265 262 261 252 255 275 297 296 310 32 40 293 300 339 352 33 24 340 351 335 319 11 25 300 320 27 337 318 325 332 46 97 109 124 138 194 224 184 124 107 150 198 213 253 308 39 117 173 200 195 173 136 12 283 276 66 29 345 327
332 336 337 337 337 337 338 336 339 343 341 340 341 331 317 318 325 331 329 308 268 247 266 280 287 287 284 280 271 258 248 250 257 256 243 279 314 16 182 248 273 255 251 63 45 334 342 355 346 30 28 316 344 2 221 117 337 320 348 57 95 227 204 169 154 154 145 160 198 218 234 274 325 69 126 157 41 95 148 133 87 13 354 48 81 34 16
325 332 335 336 335 336 337 335 336 338 337 338 338 328 316 314 319 330 332 307 266 258 267 274 284 289 285 288 292 284 272 265 266 264 244 222 272 299 230 226 261 247 235 126 137 237 277 254 238 63 49 309 345 340 308 70 43 294 333 13 264 265 272 131 121 90 73 98 207 248 325 332 343 17 70 89 76 79 106 94 71 12 340 353 35 94 69
318 323 329 334 334 334 335 336 334 332 331 335 332 323 315 310 313 328 333 309 282 293 279 275 292 287 279 304 315 312 304 292 290 297 282 226 207 275 281 221 191 203 267 246 201 161 119 216 244 57 50 278 9 17 332 350 303 239 12 348 302 315 19 56 74 71 77 56 313 306 360 1 346 2 38 56 54 46 59 78 76 34 17 13 341 270 108
314 317 322 327 329 331 333 333 331 329 329 331 328 323 315 304 304 317 320 293 289 316 307 301 287 278 302 317 311 305 306 308 311 317 303 247 217 219 244 207 190 184 219 234 154 75 53 296 98 95 145 252 339 90 260 282 270 150 92 270 277 337 35 46 42 46 106 187 250 283 308 355 10 42 77 76 53 33 22 26 49 57 43 17 353 355 119
314 315 317 321 324 327 329 329 329 328 327 328 327 322 311 301 297 293 273 263 268 262 266 286 280 293 321 323 308 303 312 316 313 310 300 270 243 232 228 209 196 185 145 96 90 100 147 139 114 153 182 206 193 194 211 226 232 117 149 215 233 16 26 32 97 67 71 166 217 320 5 20 17 24 39 51 84 58 28 9 25 47 43 27 21 14 18
313 313 315 318 320 323 325 327 327 326 327 329 325 318 310 303 299 281 246 234 235 272 278 259 278 307 317 306 299 306 314 316 312 307 304 296 263 234 222 212 188 158 110 85 42 63 105 85 245 200 197 210 201 198 221 224 154 93 239 259 284 77 44 40 102 97 133 211 210 178 129 93 360 1 24 16 46 74 55 25 16 28 36 43 38 17 4
313 314 316 317 318 320 321 323 325 326 328 327 323 321 320 315 307 285 243 223 211 246 301 272 282 306 308 296 300 311 314 314 314 307 304 305 272 222 209 204 187 154 127 135 53 33 123 205 246 213 189 150 216 260 296 302 66 52 252 261 226 154 178 170 137 152 208 225 217 178 139 146 211 208 66 38 56 78 69 44 10 3 2 38 65 52 22
310 314 316 316 316 316 317 320 323 325 326 328 327 330 344 40 83 92 113 174 219 252 282 291 282 289 295 298 305 311 312 314 315 306 302 302 259 208 203 210 201 174 126 126 128 166 211 223 229 219 200 158 169 258 311 98 132 250 242 236 230 217 208 177 156 154 200 228 212 177 139 146 191 171 101 62 73 85 78 59 30 10 353 360 99 105 87
307 310 313 312 311 311 313 317 321 322 324 328 331 333 350 69 97 108 105 62 360 327 284 284 292 283 287 292 295 299 305 310 311 306 305 303 236 194 198 205 201 165 97 109 145 182 213 256 286 269 256 133 130 162 259 153 208 263 257 246 252 264 264 210 174 152 163 201 200 154 127 136 158 141 88 47 55 83 77 46 21 14 5 6 49 108 113
306 308 311 310 309 311 314 314 317 319 316 317 327 357 94 203 158 155 182 332 339 342 302 254 288 299 293 274 258 279 293 297 299 299 296 284 229 197 194 196 203 159 133 158 202 196 189 213 273 288 296 97 112 135 164 139 211 278 263 242 236 225 203 214 215 186 168 160 109 78 82 94 104 91 55 20 28 68 72 21 344 352 7 10 3 333 197
307 308 310 310 311 315 315 311 312 311 303 295 284 262 260 272 274 268 288 308 319 329 249 279 308 307 295 283 281 288 287 281 281 292 281 249 224 216 214 210 207 175 143 137 168 230 206 185 182 240 270 133 110 105 123 127 180 245 235 215 219 223 208 207 208 148 128 124 101 81 54 11 28 135 159 229 32 57 54 8 341 354 11 14 5 360 27
307 307 307 307 312 315 312 308 307 301 293 286 276 269 273 283 291 295 299 302 301 264 180 233 301 270 267 298 303 298 294 289 298 313 289 251 209 202 287 291 132 135 121 126 172 231 231 149 145 231 277 137 102 97 144 185 220 235 221 202 216 229 215 160 131 107 94 101 113 128 161 202 205 177 165 129 53 45 35 7 4 15 19 16 7 357 358
306 305 304 307 313 314 311 310 308 300 290 276 266 273 298 319 321 317 298 272 249 227 235 209 246 271 282 324 316 304 320 337 321 298 283 277 209 158 224 320 25 63 238 212 183 267 300 164 151 212 271 312 84 101 244 252 254 251 228 224 231 205 89 80 95 108 108 98 97 124 158 162 132 102 100 79 42 25 19 22 38 40 27 14 359 346 342
305 306 306 309 312 312 313 314 309 296 275 246 256 297 328 325 318 316 278 226 184 90 275 224 212 267 297 329 300 290 311 323 288 240 242 271 262 159 170 68 40 230 228 203 113 270 263 213 167 194 252 281 117 205 234 247 257 246 190 205 217 151 108 104 128 151 144 122 112 120 127 115 106 118 138 142 68 45 36 25 37 59 48 12 343 347 9
306 309 310 312 314 313 314 317 302 167 200 274 297 316 318 303 295 290 255 233 224 214 222 254 235 226 224 268 273 292 330 327 292 282 281 287 306 337 96 108 183 247 251 77 93 230 239 197 140 197 268 227 196 228 227 214 218 212 186 193 203 175 151 160 170 168 154 133 133 133 120 122 145 167 171 182 165 82 64 35 30 52 52 19 348 355 18
306 311 313 315 318 318 309 266 142 75 310 306 312 317 310 289 275 258 222 221 228 222 204 270 253 231 215 246 260 306 342 319 304 326 321 272 268 308 69 104 212 254 23 47 230 218 220 117 107 153 233 226 214 238 238 206 194 194 184 186 193 172 157 160 156 143 124 117 129 122 99 112 168 186 173 187 189 91 81 71 64 74 72 45 24 25 26
305 310 313 315 325 336 300 215 299 316 310 308 312 315 305 265 188 192 187 193 217 214 186 204 241 236 220 245 254 299 326 310 342 354 313 265 290 326 32 116 201 225 53 273 250 207 105 26 70 163 240 269 261 245 242 221 197 186 168 167 174 165 158 159 150 134 122 121 146 135 93 90 136 181 176 172 134 83 93 106 99 94 90 77 67 65 52
308 313 311 303 276 253 261 282 305 311 309 304 299 289 262 90 87 223 224 194 200 205 188 212 232 213 199 233 258 276 262 270 332 334 283 270 315 310 312 357 270 63 73 276 274 322 74 332 323 195 269 293 288 243 221 201 195 186 159 158 162 157 153 156 154 148 151 164 186 181 154 137 145 161 156 133 100 86 97 100 83 77 84 90 90 82 64
306 300 290 266 258 274 286 296 304 310 309 294 238 168 189 234 187 197 210 200 211 222 204 207 223 209 198 219 251 258 218 204 207 227 243 262 276 240 80 347 254 104 93 269 276 57 104 195 304 286 250 264 269 247 194 142 102 49 94 131 140 135 133 136 137 135 131 123 121 137 144 146 144 140 137 131 120 111 104 92 84 85 87 84 82 84 87
288 275 268 283 291 294 298 302 304 303 286 239 263 182 181 231 239 229 220 212 226 238 210 188 213 232 209 206 227 246 231 218 208 187 217 265 278 95 100 265 267 82 104 254 254 84 88 90 298 259 241 242 242 227 136 101 76 50 60 103 121 121 118 115 108 106 106 103 96 98 107 113 114 117 125 132 129 125 124 111 93 89 90 88 88 94 102
271 276 284 292 295 296 298 300 291 233 164 314 291 218 222 235 239 245 240 221 231 248 226 189 201 227 209 189 195 220 228 223 213 162 202 260 267 160 172 260 23 76 229 245 252 67 65 38 270 260 254 245 226 184 125 107 104 95 90 99 108 115 114 108 103 106 110 112 116 116 106 103 108 117 120 117 112 113 119 113 100 96 100 104 106 106 106
277 282 288 293 294 292 288 276 236 189 52 98 140 254 270 257 239 253 260 247 238 252 252 232 252 283 265 184 190 225 239 230 212 153 194 250 270 74 87 37 57 202 235 252 63 76 148 196 223 239 240 232 213 177 143 134 135 122 104 96 100 109 113 114 117 119 114 112 120 122 112 108 117 125 123 118 112 104 101 104 109 113 113 112 113 115 117
277 283 285 285 276 258 264 280 247 129 151 198 180 195 237 247 253 256 255 264 289 301 308 316 304 292 292 277 228 231 241 237 216 115 214 245 256 74 90 221 227 230 246 38 63 185 216 219 235 236 216 197 198 177 149 141 136 121 102 79 82 97 108 114 113 110 105 103 103 100 99 106 118 124 123 123 124 122 117 117 122 123 122 119 119 122 126
264 270 213 274 288 279 262 279 252 198 229 228 197 193 232 251 262 267 265 278 303 311 313 315 300 277 275 282 272 255 255 238 181 211 223 223 164 141 205 222 228 31 42 49 90 229 266 265 259 235 187 178 187 174 152 149 146 131 109 79 77 93 104 101 92 95 104 103 92 86 93 108 117 118 121 128 131 130 131 135 135 130 125 121 122 128 134
205 249 181 253 277 261 219 259 266 250 232 231 311 344 312 293 290 294 296 300 307 309 308 306 298 284 271 250 238 264 268 155 184 229 188 108 133 226 221 194 95 57 52 358 244 216 232 246 246 217 182 176 175 164 158 156 144 126 116 107 104 106 106 100 97 100 102 97 96 98 105 112 116 120 127 132 131 130 134 138 138 135 129 122 122 129 134
239 259 133 226 275 273 250 245 247 252 286 321 337 333 316 301 290 288 287 290 300 309 307 301 293 284 270 242 262 282 282 270 244 268 259 109 177 262 353 65 126 184 154 175 229 239 241 241 231 209 194 180 160 152 156 156 144 136 134 132 125 118 112 111 112 108 97 97 104 111 115 117 121 127 132 133 134 138 141 140 139 141 144 138 132 133 133
185 166 160 211 245 244 233 250 294 307 304 309 313 309 308 309 304 299 299 305 319 323 312 301 295 300 297 270 203 262 291 324 318 272 254 140 150 343 29 33 267 240 178 177 202 227 242 232 206 194 189 171 152 150 157 159 155 150 146 143 140 135 129 126 126 122 111 108 114 122 126 127 129 130 131 135 141 145 144 142 145 151 153 149 146 147 145
125 168 235 239 263 262 254 275 315 311 297 300 313 311 311 314 308 300 303 315 321 309 295 281 249 207 261 270 145 351 298 285 236 236 232 133 148 171 129 157 233 263 253 216 206 219 236 223 193 177 172 162 154 160 167 166 162 161 159 157 156 147 136 136 145 144 131 124 130 142 144 140 137 135 134 136 145 147 143 145 156 164 162 161 164 167 164
177 231 228 210 244 279 287 297 303 297 300 320 327 316 311 313 307 300 300 307 310 304 299 291 200 154 264 337 26 359 283 260 250 228 173 176 187 164 119 159 217 231 234 226 219 227 232 210 169 161 172 170 162 166 172 167 163 166 166 162 158 150 143 146 153 150 139 138 148 157 157 150 145 144 143 146 153 154 150 153 167 174 173 172 176 178 178
217 246 238 213 220 247 280 296 282 281 293 304 303 297 299 300 296 293 295 303 317 326 325 315 315 353 26 42 337 266 256 277 286 256 194 205 187 109 103 231 246 240 241 250 251 242 226 190 154 150 164 171 170 172 172 167 166 166 157 146 143 143 145 150 152 146 138 138 141 148 158 158 150 147 149 152 153 151 145 151 167 175 178 182 187 189 191
212 237 251 242 229 229 240 257 262 261 268 275 277 279 284 281 280 290 306 320 333 332 312 279 260 279 105 214 241 247 25 312 295 296 76 354 22 96 137 242 255 257 266 277 283 274 163 152 149 151 158 164 169 168 159 152 156 156 144 136 136 139 144 150 148 140 138 139 133 131 143 152 150 148 149 150 146 144 156 169 172 175 180 186 194 203 206